カタログに戻る

LEMUR-2-FINNIAN

運用中科学SSO
NORAD 66782·PAYLOAD·🇺🇸 United States

打ち上げ Nov 28, 2025 から Vandenberg Space Force Base

Loading…

次のパス (今後24時間)

TLE

最新Source: Space-Track

元期: Sep 14, 2026, 10:15 UTC

1 66782U 25276DW  26257.42725834  .00003764  00000-0  29912-3 0  9994
2 66782  97.5235 325.6576 0010721 147.8465 212.3416 15.00996672 33383

AllMySatでLEMUR-2-FINNIANをリアルタイム追跡

Download on the App Store